[[{"header":{"parameterUnit":"m.s-1","parameterCategory":1,"la1":30.2991,"la2":30.254,"lo1":-89.0895,"lo2":-89.0444,"dy":0.0017,"dx":0.0017,"nx":28,"ny":28,"refTime":"2025-09-16T03:00:00:Z","depth":0,"parameterNumber":2,"parameterNumberName":"U-component_of_WINDS"},"data":[0,0,0,0,0,0,0,0,0,0,0,0,0,0,0,0,0,0,0,0,0,0,0,0,0,0,0,0,0,0,0,0,0,0,0,0,0,0,0,0,0,0,0,0,0,0,0,0,0,0,0,0,0,0,0,0,0,0,0.1534,0.1533,0,0.1438,0.1437,0.1436,0.1355,0.1354,0.1353,0.1352,0.1252,0.125,0.1248,0,0,0,0,0,0,0,0,0,0,0,0,0,0.1644,0.1643,0.1534,0.1533,0.1532,0.1438,0.1437,0.1436,0.1355,0.1354,0.1353,0.1352,0.1253,0.125,0.1248,0,0,0,0,0,0,0,0,0,0,0,0,0,0.1577,0.1642,0.1534,0.148,0.1475,0.1439,0.1437,0.1435,0.1355,0.1354,0.1353,0.1352,0.1253,0.1251,0.1248,0.1257,0,0,0.1239,0.1238,0,0,0,0,0,0,0,0,0.1581,0.1573,0.149,0.1484,0.1477,0.1407,0.1439,0.1376,0.1356,0.1401,0.1352,0.1351,0.1305,0.1297,0.1282,0.1252,0.1248,0.1239,0.1237,0.1236,0.1235,0,0,0,0,0,0,0,0.1586,0.1577,0.1496,0.1488,0.1481,0.146,0.1449,0.1427,0.1361,0.1397,0.139,0.138,0.1301,0.1285,0.1279,0.1247,0.1239,0.1237,0.1235,0.1234,0.1217,0.1218,0,0,0,0,0,0,0.1599,0.1581,0.1499,0.1493,0.1527,0.1459,0.1447,0.1431,0.1361,0.1349,0.1382,0.1377,0.1291,0.1283,0.1276,0.128,0.1236,0.1234,0.1232,0.1216,0.1217,0.1218,0,0,0,0,0,0,0.1602,0.1593,0.1503,0.1536,0.1523,0.1458,0.1442,0.143,0.1414,0.135,0.1337,0.1378,0.1289,0.1279,0.1262,0.1275,0.1232,0.123,0.1214,0.1216,0.1218,0.129,0,0,0,0,0,0,0.1605,0.1594,0.1598,0.1536,0.1521,0.1492,0.1443,0.1429,0.141,0.1403,0.1343,0.1332,0.1287,0.1266,0.1259,0.1271,0.1228,0.1213,0.1215,0.1217,0.1286,0.1294,0.1301,0,0,0,0,0,0.161,0.1622,0.1598,0.1589,0.1525,0.1493,0.1484,0.1434,0.1411,0.1414,0.1372,0.1334,0.1276,0.1265,0.1256,0.1267,0.1212,0.1214,0.1217,0.1283,0.1292,0.1301,0,0,0,0,0,0,0.1686,0.1613,0.1586,0.1579,0.1543,0.148,0.1481,0.1446,0.1415,0.141,0.1348,0.1335,0.1324,0.1294,0.1284,0.1271,0.1238,0.1239,0.1291,0.13,0.1307,0.1314,0.1225,0,0,0,0,0,0.1702,0.1684,0.1621,0.162,0.1604,0.1546,0.153,0.1495,0.1454,0.1439,0.1396,0.1358,0.133,0.1314,0.1285,0.1282,0.1266,0.1285,0.1292,0.1299,0.13,0.1293,0.13,0.1227,0.1227,0.1227,0,0,0.1735,0.1693,0.1685,0.1635,0.1602,0.1583,0.1534,0.1516,0.1501,0.1436,0.1416,0.1384,0.1337,0.1326,0.1319,0.13,0.1317,0.1302,0.1308,0.1305,0.1297,0.1304,0.131,0.1229,0.1229,0.1229,0,0,0.1785,0.1752,0.1747,0.1716,0.1668,0.163,0.1629,0.157,0.1546,0.1526,0.1476,0.1457,0.1412,0.138,0.1358,0.1395,0.1357,0.1388,0.1425,0.142,0.1426,0.1431,0.1442,0.1447,0.1389,0.1389,0.139,0,0.1831,0.1802,0.1749,0.1734,0.1713,0.1654,0.1647,0.162,0.1565,0.1551,0.1531,0.1473,0.1437,0.1417,0.1426,0.1411,0.1406,0.1393,0.143,0.1434,0.1437,0.1447,0.1452,0.1393,0.1393,0.1392,0.1392,0,0.186,0.184,0.1842,0.1791,0.177,0.176,0.1704,0.1689,0.1655,0.1618,0.1597,0.1553,0.1513,0.1506,0.1473,0.148,0.147,0.1441,0.1406,0.1449,0.1457,0.1461,0.1399,0.1397,0.1396,0.1395,0,0,0.1955,0.1875,0.1876,0.1851,0.1794,0.1777,0.1763,0.1725,0.1712,0.1677,0.1662,0.1626,0.1598,0.1573,0.1535,0.1531,0.1561,0.1502,0.15,0.1513,0.1564,0.1585,0.159,0.1536,0.1537,0.1537,0.1567,0,0.1993,0.1966,0.1918,0.1906,0.1886,0.1829,0.1817,0.178,0.1745,0.1722,0.1683,0.1657,0.1623,0.1607,0.1601,0.1559,0.157,0.1556,0.152,0.152,0.1532,0.1595,0.1617,0.1647,0.157,0.1571,0.1571,0,0.2035,0.2003,0.1989,0.1931,0.1921,0.1911,0.1872,0.1851,0.1807,0.1782,0.1754,0.1713,0.1694,0.1664,0.1635,0.1627,0.161,0.1587,0.1587,0.158,0.1547,0.1588,0.1656,0.166,0.1576,0.1576,0.1575,0,0.2103,0.2056,0.2041,0.2022,0.1955,0.1949,0.1921,0.1876,0.1856,0.1821,0.1807,0.1771,0.1751,0.1723,0.1672,0.1655,0.1649,0.1615,0.1626,0.1627,0.1625,0.1626,0.169,0.1618,0.1618,0.1618,0.1618,0,0.215,0.2143,0.207,0.2061,0.205,0.1995,0.1986,0.1953,0.1913,0.1895,0.1844,0.1828,0.1764,0.174,0.1701,0.1682,0.1674,0.1651,0.164,0.1655,0.1657,0.1641,0.1637,0.1619,0.1619,0.1618,0.1618,0,0.2223,0.2174,0.2154,0.2093,0.2077,0.2072,0.2019,0.2007,0.1969,0.1947,0.1938,0.1879,0.1848,0.1795,0.1749,0.1723,0.1711,0.1694,0.1726,0.1719,0.1732,0.173,0.1786,0.1789,0.1718,0.1719,0.1719,0,0.2256,0.2249,0.2187,0.2172,0.2145,0.2122,0.2101,0.2046,0.2026,0.1975,0.1969,0.1934,0.1903,0.1856,0.1807,0.1771,0.1752,0.1774,0.1746,0.176,0.1749,0.175,0.1748,0.178,0.1781,0.1781,0.1782,0,0.2317,0.2293,0.2266,0.223,0.2206,0.2175,0.2141,0.2131,0.2068,0.2048,0.2016,0.1992,0.1945,0.191,0.1867,0.1837,0.1798,0.1792,0.1792,0.1805,0.1823,0.1811,0.1741,0.179,0.1789,0.1789,0.1788,0.1788,0.2369,0.236,0.2315,0.2285,0.2254,0.2223,0.2209,0.2169,0.2142,0.2099,0.2069,0.2038,0.1993,0.1931,0.1903,0.1877,0.186,0.1861,0.1861,0.1861,0.1866,0.1829,0.187,0.1869,0.1869,0.1869,0.1869,0,0.2427,0.2395,0.2369,0.2322,0.2299,0.2267,0.2227,0.2209,0.2183,0.2145,0.2115,0.2078,0.2044,0.1993,0.1955,0.1944,0.1925,0.1935,0.1934,0.1927,0.1885,0.1887,0.1951,0.1951,0.1951,0.1951,0.1951,0.1951,0.2454,0.2435,0.2406,0.2372,0.2339,0.231,0.229,0.226,0.2229,0.219,0.2162,0.2129,0.2085,0.2043,0.201,0.1995,0.1983,0.1998,0.1978,0.1939,0.1931,0.1924,0.1926,0.1996,0.1996,0.2023,0.2023,0.2023]},{"header":{"parameterUnit":"m.s-1","parameterCategory":1,"la1":30.2991,"la2":30.254,"lo1":-89.0895,"lo2":-89.0444,"dy":0.0017,"dx":0.0017,"nx":28,"ny":28,"refTime":"2025-09-16T03:00:00:Z","depth":0,"parameterNumber":3,"parameterNumberName":"V-component_of_WINDS"},"data":[0,0,0,0,0,0,0,0,0,0,0,0,0,0,0,0,0,0,0,0,0,0,0,0,0,0,0,0,0,0,0,0,0,0,0,0,0,0,0,0,0,0,0,0,0,0,0,0,0,0,0,0,0,0,0,0,0,0,-0.9537,-0.9537,0,-0.9559,-0.9559,-0.9559,-0.9576,-0.9576,-0.9577,-0.9577,-0.9599,-0.96,-0.96,0,0,0,0,0,0,0,0,0,0,0,0,0,-0.9511,-0.9512,-0.9537,-0.9537,-0.9537,-0.9559,-0.9559,-0.9559,-0.9576,-0.9576,-0.9577,-0.9577,-0.9599,-0.96,-0.96,0,0,0,0,0,0,0,0,0,0,0,0,0,-0.9527,-0.9512,-0.9537,-0.9548,-0.955,-0.9558,-0.9559,-0.9559,-0.9576,-0.9576,-0.9577,-0.9577,-0.9599,-0.96,-0.96,-0.9599,0,0,-0.9602,-0.9603,0,0,0,0,0,0,0,0,-0.9526,-0.9528,-0.9546,-0.9548,-0.9549,-0.9565,-0.9558,-0.9573,-0.9576,-0.9566,-0.9577,-0.9577,-0.9588,-0.9589,-0.9593,-0.96,-0.9601,-0.9602,-0.9603,-0.9603,-0.9603,0,0,0,0,0,0,0,-0.9525,-0.9527,-0.9545,-0.9547,-0.9548,-0.9553,-0.9555,-0.9561,-0.9575,-0.9567,-0.9568,-0.9571,-0.9588,-0.9592,-0.9593,-0.9602,-0.9602,-0.9603,-0.9603,-0.9604,-0.9611,-0.9611,0,0,0,0,0,0,-0.9522,-0.9526,-0.9545,-0.9546,-0.9538,-0.9553,-0.9556,-0.956,-0.9575,-0.9578,-0.957,-0.9571,-0.9591,-0.9593,-0.9594,-0.9595,-0.9603,-0.9604,-0.9604,-0.9611,-0.9611,-0.9611,0,0,0,0,0,0,-0.9521,-0.9523,-0.9544,-0.9536,-0.9539,-0.9553,-0.9557,-0.956,-0.9564,-0.9578,-0.958,-0.9571,-0.9591,-0.9593,-0.9598,-0.9596,-0.9604,-0.9605,-0.9612,-0.9611,-0.9611,-0.9596,0,0,0,0,0,0,-0.952,-0.9523,-0.9522,-0.9536,-0.954,-0.9547,-0.9557,-0.956,-0.9565,-0.9566,-0.9579,-0.9582,-0.9592,-0.9597,-0.9599,-0.9597,-0.9605,-0.9612,-0.9611,-0.9611,-0.9596,-0.9595,-0.9593,0,0,0,0,0,-0.9519,-0.9517,-0.9522,-0.9524,-0.9539,-0.9547,-0.9549,-0.956,-0.9564,-0.9564,-0.9574,-0.9582,-0.9596,-0.9598,-0.96,-0.9598,-0.9612,-0.9612,-0.9611,-0.9597,-0.9595,-0.9593,0,0,0,0,0,0,-0.9502,-0.9519,-0.9525,-0.9527,-0.9535,-0.955,-0.9549,-0.9557,-0.9564,-0.9565,-0.9579,-0.9582,-0.9586,-0.9592,-0.9594,-0.9599,-0.9605,-0.9605,-0.9594,-0.9592,-0.9591,-0.9589,-0.9606,0,0,0,0,0,-0.9499,-0.9503,-0.9518,-0.9518,-0.9522,-0.9535,-0.9539,-0.9547,-0.9556,-0.956,-0.9569,-0.9578,-0.9585,-0.9589,-0.9596,-0.9598,-0.9601,-0.9598,-0.9596,-0.9595,-0.9595,-0.9597,-0.9596,-0.9609,-0.9609,-0.9609,0,0,-0.9491,-0.9501,-0.9503,-0.9515,-0.9522,-0.9527,-0.9538,-0.9542,-0.9546,-0.956,-0.9565,-0.9573,-0.9584,-0.9588,-0.959,-0.9593,-0.9592,-0.9594,-0.9593,-0.9594,-0.9597,-0.9595,-0.9594,-0.9609,-0.9609,-0.9609,0,0,-0.948,-0.9488,-0.9489,-0.9497,-0.9508,-0.9517,-0.9517,-0.9531,-0.9537,-0.9542,-0.9553,-0.9558,-0.9569,-0.9577,-0.9582,-0.9576,-0.9584,-0.9578,-0.957,-0.9573,-0.9571,-0.9571,-0.9569,-0.9568,-0.9578,-0.9578,-0.9578,0,-0.9469,-0.9477,-0.9489,-0.9493,-0.9498,-0.9512,-0.9514,-0.9521,-0.9534,-0.9537,-0.9541,-0.9556,-0.9565,-0.9571,-0.9569,-0.9573,-0.9574,-0.9576,-0.9571,-0.957,-0.9569,-0.9568,-0.9567,-0.9577,-0.9577,-0.9577,-0.9577,0,-0.9463,-0.9468,-0.9468,-0.9481,-0.9486,-0.9489,-0.9502,-0.9507,-0.9514,-0.9523,-0.9529,-0.954,-0.955,-0.9552,-0.956,-0.956,-0.9562,-0.9568,-0.9575,-0.9567,-0.9566,-0.9565,-0.9576,-0.9576,-0.9576,-0.9577,0,0,-0.9441,-0.9461,-0.9461,-0.9467,-0.9481,-0.9486,-0.949,-0.9499,-0.9503,-0.9512,-0.9516,-0.9526,-0.9532,-0.9538,-0.9547,-0.9549,-0.9544,-0.9556,-0.9556,-0.9553,-0.9546,-0.9541,-0.954,-0.955,-0.955,-0.955,-0.9545,0,-0.9432,-0.9439,-0.9451,-0.9455,-0.9461,-0.9475,-0.9478,-0.9488,-0.9497,-0.9503,-0.9513,-0.952,-0.9527,-0.9531,-0.9534,-0.9544,-0.9543,-0.9545,-0.9554,-0.9555,-0.9551,-0.9539,-0.9533,-0.9528,-0.9545,-0.9544,-0.9544,0,-0.9422,-0.9431,-0.9435,-0.945,-0.9453,-0.9456,-0.9466,-0.9472,-0.9484,-0.949,-0.9497,-0.9507,-0.9513,-0.952,-0.9529,-0.953,-0.9535,-0.9541,-0.9541,-0.9542,-0.9549,-0.954,-0.9527,-0.9526,-0.9544,-0.9544,-0.9544,0,-0.9405,-0.9418,-0.9423,-0.9428,-0.9445,-0.9447,-0.9454,-0.9466,-0.9472,-0.9481,-0.9485,-0.9495,-0.9501,-0.9509,-0.9521,-0.9525,-0.9529,-0.9537,-0.9535,-0.9535,-0.9534,-0.9534,-0.9522,-0.9538,-0.9538,-0.9538,-0.9538,0,-0.9394,-0.9396,-0.9415,-0.9418,-0.9422,-0.9436,-0.9439,-0.9448,-0.9458,-0.9464,-0.9477,-0.9481,-0.9498,-0.9505,-0.9515,-0.9522,-0.9524,-0.953,-0.9532,-0.9528,-0.9528,-0.9531,-0.9532,-0.9538,-0.9538,-0.9538,-0.9538,0,-0.9375,-0.9388,-0.9394,-0.9411,-0.9415,-0.9417,-0.9431,-0.9435,-0.9445,-0.9451,-0.9454,-0.947,-0.9479,-0.9493,-0.9506,-0.9513,-0.9517,-0.9522,-0.9513,-0.9515,-0.9512,-0.9512,-0.9502,-0.9501,-0.9518,-0.9517,-0.9517,0,-0.9367,-0.9369,-0.9386,-0.939,-0.9397,-0.9404,-0.941,-0.9425,-0.9431,-0.9445,-0.9447,-0.9457,-0.9466,-0.948,-0.9493,-0.9504,-0.9508,-0.9504,-0.951,-0.9506,-0.9509,-0.9508,-0.9509,-0.9502,-0.9502,-0.9502,-0.9502,0,-0.9351,-0.9357,-0.9365,-0.9375,-0.9382,-0.9391,-0.9401,-0.9404,-0.9421,-0.9427,-0.9436,-0.9443,-0.9457,-0.9467,-0.948,-0.9488,-0.9498,-0.95,-0.95,-0.9496,-0.9491,-0.9494,-0.9509,-0.95,-0.95,-0.95,-0.95,-0.95,-0.9337,-0.934,-0.9352,-0.9361,-0.937,-0.9379,-0.9383,-0.9395,-0.9403,-0.9415,-0.9424,-0.9433,-0.9446,-0.9464,-0.9472,-0.948,-0.9484,-0.9484,-0.9484,-0.9484,-0.9483,-0.949,-0.9482,-0.9482,-0.9483,-0.9483,-0.9483,0,-0.9322,-0.9331,-0.9338,-0.9352,-0.9359,-0.9368,-0.9379,-0.9385,-0.9392,-0.9404,-0.9412,-0.9424,-0.9435,-0.9449,-0.9461,-0.9464,-0.9469,-0.9467,-0.9467,-0.9469,-0.9478,-0.9477,-0.9463,-0.9463,-0.9463,-0.9463,-0.9463,-0.9463,-0.9314,-0.932,-0.9328,-0.9339,-0.9348,-0.9357,-0.9363,-0.9372,-0.9381,-0.9393,-0.9402,-0.9411,-0.9424,-0.9438,-0.9448,-0.9452,-0.9456,-0.9452,-0.9458,-0.9466,-0.9468,-0.947,-0.9468,-0.9453,-0.9453,-0.9447,-0.9447,-0.9447]}]]